Time,TemperatureF,DewpointF,PressureIn,WindDirection,WindDirectionDegrees,WindSpeedMPH,WindSpeedGustMPH,Humidity,HourlyPrecipIn,Conditions,Clouds,dailyrainin,SolarRadiationWatts/m^2,SoftwareType,DateUTC
2013-05-02 00:02:00,39.0,29.0,-100.00,North,9,7.0,19.0,67,0.00,,,0.00,0.000000,,2013-05-02 05:02:00,
2013-05-02 00:12:00,38.0,29.0,-100.00,North,1,7.0,16.0,71,0.00,,,0.00,0.000000,,2013-05-02 05:12:00,
2013-05-02 00:32:00,38.0,29.0,-100.00,North,1,7.0,16.0,71,0.00,,,0.00,0.000000,,2013-05-02 05:32:00,
2013-05-02 00:42:00,38.0,29.0,-100.00,North,1,7.0,16.0,71,0.00,,,0.00,0.000000,,2013-05-02 05:42:00,
2013-05-02 00:52:00,38.0,29.0,-100.00,North,1,7.0,16.0,71,0.00,,,0.00,0.000000,,2013-05-02 05:52:00,
2013-05-02 01:01:00,38.0,29.0,-100.00,North,1,7.0,16.0,71,0.00,,,0.00,0.000000,,2013-05-02 06:01:00,
2013-05-02 03:12:00,39.0,30.0,-100.00,North,10,8.0,18.0,69,-99.99,,,0.00,0.000000,,2013-05-02 08:12:00,
2013-05-02 03:42:00,39.0,30.0,-100.00,North,10,8.0,18.0,69,-99.99,,,0.00,0.000000,,2013-05-02 08:42:00,
2013-05-02 03:52:00,39.0,30.0,-100.00,North,10,8.0,18.0,69,-99.99,,,0.00,0.000000,,2013-05-02 08:52:00,
2013-05-02 04:02:00,39.0,30.0,-100.00,North,10,8.0,18.0,69,-99.99,,,0.00,0.000000,,2013-05-02 09:02:00,
2013-05-02 04:12:00,38.0,30.0,-100.00,North,9,8.0,21.0,74,0.00,,,0.00,0.000000,,2013-05-02 09:12:00,
2013-05-02 04:42:00,38.0,30.0,-100.00,North,9,8.0,21.0,74,0.00,,,0.00,0.000000,,2013-05-02 09:42:00,
2013-05-02 04:52:00,38.0,30.0,-100.00,North,9,8.0,21.0,74,0.00,,,0.00,0.000000,,2013-05-02 09:52:00,
2013-05-02 05:02:00,38.0,30.0,-100.00,North,9,8.0,21.0,74,0.00,,,0.00,0.000000,,2013-05-02 10:02:00,
2013-05-02 05:12:00,37.0,30.0,-100.00,North,5,10.0,21.0,76,0.00,,,0.00,0.000000,,2013-05-02 10:12:00,
2013-05-02 05:33:00,37.0,30.0,-100.00,North,5,10.0,21.0,76,0.00,,,0.00,0.000000,,2013-05-02 10:33:00,
2013-05-02 05:42:00,37.0,30.0,-100.00,North,5,10.0,21.0,76,0.00,,,0.00,0.000000,,2013-05-02 10:42:00,
2013-05-02 05:53:00,37.0,30.0,-100.00,North,5,10.0,21.0,76,0.00,,,0.00,0.000000,,2013-05-02 10:53:00,
2013-05-02 06:02:00,37.0,30.0,-100.00,North,5,10.0,21.0,76,0.00,,,0.00,0.000000,,2013-05-02 11:02:00,
2013-05-02 06:32:00,37.0,31.0,-100.00,North,11,10.0,26.0,79,0.00,,,0.00,11.000000,,2013-05-02 11:32:00,
2013-05-02 06:42:00,37.0,31.0,-100.00,North,11,10.0,26.0,79,0.00,,,0.00,11.000000,,2013-05-02 11:42:00,
2013-05-02 06:52:00,37.0,31.0,-100.00,North,11,10.0,26.0,79,0.00,,,0.00,11.000000,,2013-05-02 11:52:00,
2013-05-02 07:01:00,37.0,31.0,-100.00,North,11,10.0,26.0,79,0.00,,,0.00,11.000000,,2013-05-02 12:01:00,
2013-05-02 07:11:00,37.0,31.0,-100.00,North,11,10.0,26.0,79,0.00,,,0.00,11.000000,,2013-05-02 12:11:00,
2013-05-02 08:42:00,38.0,31.0,-100.00,NNE,15,10.0,22.0,77,-99.99,,,0.00,118.000000,,2013-05-02 13:42:00,
2013-05-02 08:52:00,38.0,31.0,-100.00,NNE,15,10.0,22.0,77,-99.99,,,0.00,118.000000,,2013-05-02 13:52:00,
2013-05-02 09:02:00,38.0,31.0,-100.00,NNE,15,10.0,22.0,77,-99.99,,,0.00,118.000000,,2013-05-02 14:02:00,
2013-05-02 09:11:00,38.0,31.0,-100.00,NNE,15,10.0,22.0,77,-99.99,,,0.00,118.000000,,2013-05-02 14:11:00,
2013-05-02 09:12:00,40.0,33.0,-100.00,NNE,16,8.0,24.0,75,0.00,,,0.00,217.000000,,2013-05-02 14:12:00,
2013-05-02 09:43:00,40.0,33.0,-100.00,NNE,16,8.0,24.0,75,0.00,,,0.00,217.000000,,2013-05-02 14:43:00,
2013-05-02 09:52:00,40.0,33.0,-100.00,NNE,16,8.0,24.0,75,0.00,,,0.00,217.000000,,2013-05-02 14:52:00,
2013-05-02 10:02:00,40.0,33.0,-100.00,NNE,16,8.0,24.0,75,0.00,,,0.00,217.000000,,2013-05-02 15:02:00,
2013-05-02 10:12:00,42.0,33.0,-100.00,NNE,14,11.0,24.0,70,0.00,,,0.00,301.000000,,2013-05-02 15:12:00,
2013-05-02 10:33:00,42.0,33.0,-100.00,NNE,14,11.0,24.0,70,0.00,,,0.00,301.000000,,2013-05-02 15:33:00,
2013-05-02 10:43:00,42.0,33.0,-100.00,NNE,14,11.0,24.0,70,0.00,,,0.00,301.000000,,2013-05-02 15:43:00,
2013-05-02 11:03:00,42.0,33.0,-100.00,NNE,14,11.0,24.0,70,0.00,,,0.00,301.000000,,2013-05-02 16:03:00,
2013-05-02 11:12:00,44.0,33.0,-100.00,NNE,13,11.0,25.0,64,0.00,,,0.00,467.000000,,2013-05-02 16:12:00,
2013-05-02 11:32:00,44.0,33.0,-100.00,NNE,13,11.0,25.0,64,0.00,,,0.00,467.000000,,2013-05-02 16:32:00,
2013-05-02 11:43:00,44.0,33.0,-100.00,NNE,13,11.0,25.0,64,0.00,,,0.00,467.000000,,2013-05-02 16:43:00,
2013-05-02 11:52:00,44.0,33.0,-100.00,NNE,13,11.0,25.0,64,0.00,,,0.00,467.000000,,2013-05-02 16:52:00,
2013-05-02 12:02:00,44.0,33.0,-100.00,NNE,13,11.0,25.0,64,0.00,,,0.00,467.000000,,2013-05-02 17:02:00,
2013-05-02 12:32:00,41.0,32.0,-100.00,North,354,11.0,21.0,71,0.00,,,0.00,244.000000,,2013-05-02 17:32:00,
2013-05-02 12:42:00,41.0,32.0,-100.00,North,354,11.0,21.0,71,0.00,,,0.00,244.000000,,2013-05-02 17:42:00,
2013-05-02 12:52:00,41.0,32.0,-100.00,North,354,11.0,21.0,71,0.00,,,0.00,244.000000,,2013-05-02 17:52:00,
2013-05-02 13:01:00,41.0,32.0,-100.00,North,354,11.0,21.0,71,0.00,,,0.00,244.000000,,2013-05-02 18:01:00,
2013-05-02 13:11:00,41.0,32.0,-100.00,North,354,11.0,21.0,71,0.00,,,0.00,244.000000,,2013-05-02 18:11:00,
2013-05-02 13:42:00,39.0,32.0,-100.00,North,6,10.0,22.0,75,0.00,,,-99.99,174.000000,,2013-05-02 18:42:00,
2013-05-02 13:52:00,39.0,32.0,-100.00,North,6,10.0,22.0,75,0.00,,,-99.99,174.000000,,2013-05-02 18:52:00,
2013-05-02 14:01:00,39.0,32.0,-100.00,North,6,10.0,22.0,75,0.00,,,-99.99,174.000000,,2013-05-02 19:01:00,
2013-05-02 14:11:00,39.0,32.0,-100.00,North,6,10.0,22.0,75,0.00,,,-99.99,174.000000,,2013-05-02 19:11:00,
2013-05-02 14:32:00,38.0,31.0,-100.00,North,357,11.0,26.0,76,0.00,,,0.00,194.000000,,2013-05-02 19:32:00,
2013-05-02 14:42:00,38.0,31.0,-100.00,North,357,11.0,26.0,76,0.00,,,0.00,194.000000,,2013-05-02 19:42:00,
2013-05-02 14:52:00,38.0,31.0,-100.00,North,357,11.0,26.0,76,0.00,,,0.00,194.000000,,2013-05-02 19:52:00,
2013-05-02 15:02:00,38.0,31.0,-100.00,North,357,11.0,26.0,76,0.00,,,0.00,194.000000,,2013-05-02 20:02:00,
2013-05-02 15:11:00,38.0,31.0,-100.00,North,357,11.0,26.0,76,0.00,,,0.00,194.000000,,2013-05-02 20:11:00,
2013-05-02 15:42:00,37.0,29.0,-100.00,North,4,11.0,27.0,74,0.00,,,0.00,205.000000,,2013-05-02 20:42:00,
2013-05-02 15:52:00,37.0,29.0,-100.00,North,4,11.0,27.0,74,0.00,,,0.00,205.000000,,2013-05-02 20:52:00,
2013-05-02 16:01:00,37.0,29.0,-100.00,North,4,11.0,27.0,74,0.00,,,0.00,205.000000,,2013-05-02 21:01:00,
2013-05-02 16:11:00,37.0,29.0,-100.00,North,4,11.0,27.0,74,0.00,,,0.00,205.000000,,2013-05-02 21:11:00,
2013-05-02 16:12:00,36.0,28.0,-100.00,North,10,12.0,29.0,73,0.00,,,0.00,169.000000,,2013-05-02 21:12:00,
2013-05-02 16:42:00,36.0,28.0,-100.00,North,10,12.0,29.0,73,0.00,,,0.00,169.000000,,2013-05-02 21:42:00,
2013-05-02 16:53:00,36.0,28.0,-100.00,North,10,12.0,29.0,73,0.00,,,0.00,169.000000,,2013-05-02 21:53:00,
2013-05-02 17:02:00,36.0,28.0,-100.00,North,10,12.0,29.0,73,0.00,,,0.00,169.000000,,2013-05-02 22:02:00,
2013-05-02 17:42:00,35.0,29.0,-100.00,North,10,10.0,26.0,80,0.00,,,0.00,74.000000,,2013-05-02 22:42:00,
2013-05-02 17:53:00,35.0,29.0,-100.00,North,10,10.0,26.0,80,0.00,,,0.00,74.000000,,2013-05-02 22:53:00,
2013-05-02 18:02:00,35.0,29.0,-100.00,North,10,10.0,26.0,80,0.00,,,0.00,74.000000,,2013-05-02 23:02:00,
2013-05-02 18:11:00,35.0,29.0,-100.00,North,10,10.0,26.0,80,0.00,,,0.00,74.000000,,2013-05-02 23:11:00,
2013-05-02 18:32:00,33.0,30.0,-100.00,North,4,9.0,23.0,90,0.02,,,0.02,21.000000,,2013-05-02 23:32:00,
2013-05-02 18:42:00,33.0,30.0,-100.00,North,4,9.0,23.0,90,0.02,,,0.02,21.000000,,2013-05-02 23:42:00,
2013-05-02 18:52:00,33.0,30.0,-100.00,North,4,9.0,23.0,90,0.02,,,0.02,21.000000,,2013-05-02 23:52:00,
2013-05-02 19:01:00,33.0,30.0,-100.00,North,4,9.0,23.0,90,0.02,,,0.02,21.000000,,2013-05-03 00:01:00,
2013-05-02 19:11:00,33.0,30.0,-100.00,North,4,9.0,23.0,90,0.02,,,0.02,21.000000,,2013-05-03 00:11:00,
2013-05-02 20:32:00,33.0,31.0,-100.00,NNE,12,10.0,24.0,91,-99.99,,,0.06,3.000000,,2013-05-03 01:32:00,
2013-05-02 20:42:00,33.0,31.0,-100.00,NNE,12,10.0,24.0,91,-99.99,,,0.06,3.000000,,2013-05-03 01:42:00,
2013-05-02 20:52:00,33.0,31.0,-100.00,NNE,12,10.0,24.0,91,-99.99,,,0.06,3.000000,,2013-05-03 01:52:00,
2013-05-02 21:01:00,33.0,31.0,-100.00,NNE,12,10.0,24.0,91,-99.99,,,0.06,3.000000,,2013-05-03 02:01:00,
2013-05-02 21:11:00,33.0,31.0,-100.00,NNE,12,10.0,24.0,91,-99.99,,,0.06,3.000000,,2013-05-03 02:11:00,
2013-05-02 21:32:00,32.0,29.0,-100.00,North,9,10.0,28.0,89,0.00,,,0.06,0.000000,,2013-05-03 02:32:00,
2013-05-02 21:42:00,32.0,29.0,-100.00,North,9,10.0,28.0,89,0.00,,,0.06,0.000000,,2013-05-03 02:42:00,
2013-05-02 21:52:00,32.0,29.0,-100.00,North,9,10.0,28.0,89,0.00,,,0.06,0.000000,,2013-05-03 02:52:00,
2013-05-02 22:01:00,32.0,29.0,-100.00,North,9,10.0,28.0,89,0.00,,,0.06,0.000000,,2013-05-03 03:01:00,
2013-05-02 22:11:00,32.0,29.0,-100.00,North,9,10.0,28.0,89,0.00,,,0.06,0.000000,,2013-05-03 03:11:00,
2013-05-02 22:12:00,32.0,29.0,-100.00,North,10,9.0,24.0,90,0.00,,,0.06,0.000000,,2013-05-03 03:12:00,
2013-05-02 22:33:00,32.0,29.0,-100.00,North,10,9.0,24.0,90,0.00,,,0.06,0.000000,,2013-05-03 03:33:00,
2013-05-02 22:43:00,32.0,29.0,-100.00,North,10,9.0,24.0,90,0.00,,,0.06,0.000000,,2013-05-03 03:43:00,
2013-05-02 22:53:00,32.0,29.0,-100.00,North,10,9.0,24.0,90,0.00,,,0.06,0.000000,,2013-05-03 03:53:00,
2013-05-02 23:03:00,32.0,29.0,-100.00,North,10,9.0,24.0,90,0.00,,,0.06,0.000000,,2013-05-03 04:03:00,
2013-05-02 23:12:00,32.0,30.0,-100.00,North,10,10.0,24.0,91,0.00,,,0.06,0.000000,,2013-05-03 04:12:00,
2013-05-02 23:32:00,32.0,30.0,-100.00,North,10,10.0,24.0,91,0.00,,,0.06,0.000000,,2013-05-03 04:32:00,
2013-05-02 23:43:00,32.0,30.0,-100.00,North,10,10.0,24.0,91,0.00,,,0.06,0.000000,,2013-05-03 04:43:00,
2013-05-02 23:53:00,32.0,30.0,-100.00,North,10,10.0,24.0,91,0.00,,,0.06,0.000000,,2013-05-03 04:53:00,